Time,TemperatureF,DewpointF,PressureIn,WindDirection,WindDirectionDegrees,WindSpeedMPH,WindSpeedGustMPH,Humidity,HourlyPrecipIn,Conditions,Clouds,dailyrainin,SoftwareType,DateUTC
2013-09-22 00:07:00,61.2,49.7,32.51,North,0,0.0,0.0,66,0.00,,,-99.99,pyweather 0.1,2013-09-22 07:07:00,
2013-09-22 00:15:00,61.2,49.3,32.51,North,0,0.0,0.0,65,0.00,,,-99.99,pyweather 0.1,2013-09-22 07:15:00,
2013-09-22 00:23:00,61.0,48.7,32.51,North,0,0.0,0.0,64,0.00,,,-99.99,pyweather 0.1,2013-09-22 07:23:00,
2013-09-22 00:31:00,61.0,48.3,32.51,North,0,0.0,0.0,63,0.00,,,-99.99,pyweather 0.1,2013-09-22 07:31:00,
2013-09-22 00:39:00,61.0,48.7,32.51,North,0,0.0,0.0,64,0.00,,,-99.99,pyweather 0.1,2013-09-22 07:39:00,
2013-09-22 00:47:00,61.0,48.7,32.51,North,0,0.0,0.0,64,0.00,,,-99.99,pyweather 0.1,2013-09-22 07:47:00,
2013-09-22 00:55:00,61.0,49.2,32.51,North,0,0.0,0.0,65,0.00,,,-99.99,pyweather 0.1,2013-09-22 07:55:00,
2013-09-22 01:03:00,61.0,49.2,32.51,North,0,0.0,0.0,65,0.00,,,-99.99,pyweather 0.1,2013-09-22 08:03:00,
2013-09-22 01:11:00,61.0,49.2,32.51,North,0,0.0,0.0,65,0.00,,,-99.99,pyweather 0.1,2013-09-22 08:11:00,
2013-09-22 01:19:00,60.6,49.2,32.51,North,0,0.0,0.0,66,0.00,,,-99.99,pyweather 0.1,2013-09-22 08:19:00,
2013-09-22 01:27:00,60.4,49.4,32.51,North,0,0.0,0.0,67,0.00,,,-99.99,pyweather 0.1,2013-09-22 08:27:00,
2013-09-22 01:35:00,60.4,49.4,32.51,North,0,0.0,0.0,67,0.00,,,-99.99,pyweather 0.1,2013-09-22 08:35:00,
2013-09-22 01:43:00,60.3,49.3,32.51,North,0,0.0,0.0,67,0.00,,,-99.99,pyweather 0.1,2013-09-22 08:43:00,
2013-09-22 01:51:00,60.1,49.5,32.51,North,0,0.0,0.0,68,0.00,,,-99.99,pyweather 0.1,2013-09-22 08:51:00,
2013-09-22 01:59:00,60.1,49.5,32.51,North,0,0.0,0.0,68,0.00,,,-99.99,pyweather 0.1,2013-09-22 08:59:00,
2013-09-22 02:07:00,59.9,49.7,32.51,North,0,0.0,0.0,69,0.00,,,-99.99,pyweather 0.1,2013-09-22 09:07:00,
2013-09-22 02:15:00,60.1,49.9,32.51,North,0,0.0,0.0,69,0.00,,,-99.99,pyweather 0.1,2013-09-22 09:15:00,
2013-09-22 02:23:00,60.3,50.5,32.51,North,0,0.0,0.0,70,0.00,,,-99.99,pyweather 0.1,2013-09-22 09:23:00,
2013-09-22 02:31:00,60.3,50.5,32.51,North,0,0.0,0.0,70,0.00,,,-99.99,pyweather 0.1,2013-09-22 09:31:00,
2013-09-22 02:39:00,60.3,50.5,32.51,North,0,0.0,0.0,70,0.00,,,-99.99,pyweather 0.1,2013-09-22 09:39:00,
2013-09-22 02:47:00,60.3,50.5,32.51,North,0,0.0,0.0,70,0.00,,,-99.99,pyweather 0.1,2013-09-22 09:47:00,
2013-09-22 02:55:00,60.1,50.3,32.51,North,0,0.0,0.0,70,0.00,,,-99.99,pyweather 0.1,2013-09-22 09:55:00,
2013-09-22 03:03:00,60.1,50.3,32.51,North,0,0.0,0.0,70,0.00,,,-99.99,pyweather 0.1,2013-09-22 10:03:00,
2013-09-22 03:11:00,60.1,50.3,32.51,North,0,0.0,0.0,70,0.00,,,-99.99,pyweather 0.1,2013-09-22 10:11:00,
2013-09-22 03:19:00,60.1,50.3,32.51,North,0,0.0,0.0,70,0.00,,,-99.99,pyweather 0.1,2013-09-22 10:19:00,
2013-09-22 03:27:00,59.9,50.1,32.51,North,0,0.0,0.0,70,0.00,,,-99.99,pyweather 0.1,2013-09-22 10:27:00,
2013-09-22 03:35:00,59.9,50.1,32.48,North,0,0.0,0.0,70,0.00,,,-99.99,pyweather 0.1,2013-09-22 10:35:00,
2013-09-22 03:43:00,59.7,49.9,32.48,North,0,0.0,0.0,70,0.00,,,-99.99,pyweather 0.1,2013-09-22 10:43:00,
2013-09-22 03:51:00,59.7,49.9,32.48,North,0,0.0,0.0,70,0.00,,,-99.99,pyweather 0.1,2013-09-22 10:51:00,
2013-09-22 03:59:00,59.7,49.5,32.48,North,0,0.0,0.0,69,0.00,,,-99.99,pyweather 0.1,2013-09-22 10:59:00,
2013-09-22 04:07:00,59.5,49.4,32.48,North,0,0.0,0.0,69,0.00,,,-99.99,pyweather 0.1,2013-09-22 11:07:00,
2013-09-22 04:15:00,59.5,49.4,32.48,North,0,0.0,0.0,69,0.00,,,-99.99,pyweather 0.1,2013-09-22 11:15:00,
2013-09-22 04:23:00,59.5,49.4,32.48,North,0,0.0,0.0,69,0.00,,,-99.99,pyweather 0.1,2013-09-22 11:23:00,
2013-09-22 04:31:00,59.5,49.0,32.48,North,0,0.0,0.0,68,0.00,,,-99.99,pyweather 0.1,2013-09-22 11:31:00,
2013-09-22 04:39:00,59.5,49.0,32.48,North,0,0.0,0.0,68,0.00,,,-99.99,pyweather 0.1,2013-09-22 11:39:00,
2013-09-22 04:47:00,59.4,48.4,32.48,North,0,0.0,0.0,67,0.00,,,-99.99,pyweather 0.1,2013-09-22 11:47:00,
2013-09-22 04:55:00,59.4,48.8,32.48,North,0,0.0,0.0,68,0.00,,,-99.99,pyweather 0.1,2013-09-22 11:55:00,
2013-09-22 05:03:00,59.0,49.6,32.48,North,0,0.0,0.0,71,0.00,,,-99.99,pyweather 0.1,2013-09-22 12:03:00,
2013-09-22 05:11:00,58.6,49.7,32.48,North,0,0.0,0.0,72,0.00,,,-99.99,pyweather 0.1,2013-09-22 12:11:00,
2013-09-22 05:19:00,58.6,50.8,32.48,North,0,0.0,0.0,75,0.00,,,-99.99,pyweather 0.1,2013-09-22 12:19:00,
2013-09-22 05:27:00,58.5,50.9,32.48,North,0,0.0,0.0,76,0.00,,,-99.99,pyweather 0.1,2013-09-22 12:27:00,
2013-09-22 05:35:00,58.1,50.6,32.48,North,0,0.0,0.0,76,0.00,,,-99.99,pyweather 0.1,2013-09-22 12:35:00,
2013-09-22 05:43:00,58.1,50.9,32.48,North,0,0.0,0.0,77,0.00,,,-99.99,pyweather 0.1,2013-09-22 12:43:00,
2013-09-22 05:51:00,58.1,50.6,32.48,North,0,0.0,0.0,76,0.00,,,-99.99,pyweather 0.1,2013-09-22 12:51:00,
2013-09-22 05:59:00,57.9,50.4,32.48,North,0,0.0,0.0,76,0.00,,,-99.99,pyweather 0.1,2013-09-22 12:59:00,
2013-09-22 06:07:00,57.9,50.0,32.48,North,0,0.0,0.0,75,0.00,,,-99.99,pyweather 0.1,2013-09-22 13:07:00,
2013-09-22 06:15:00,57.7,49.5,32.48,North,0,0.0,0.0,74,0.00,,,-99.99,pyweather 0.1,2013-09-22 13:15:00,
2013-09-22 06:23:00,57.7,49.2,32.48,North,0,0.0,0.0,73,0.00,,,-99.99,pyweather 0.1,2013-09-22 13:23:00,
2013-09-22 06:31:00,57.6,49.0,32.48,North,0,0.0,0.0,73,0.00,,,-99.99,pyweather 0.1,2013-09-22 13:31:00,
2013-09-22 06:39:00,57.6,48.6,32.48,North,0,0.0,0.0,72,0.00,,,-99.99,pyweather 0.1,2013-09-22 13:39:00,
2013-09-22 06:47:00,57.4,48.4,32.48,North,0,0.0,0.0,72,0.00,,,-99.99,pyweather 0.1,2013-09-22 13:47:00,
2013-09-22 06:55:00,57.6,48.6,32.48,North,0,0.0,0.0,72,0.00,,,-99.99,pyweather 0.1,2013-09-22 13:55:00,
2013-09-22 07:03:00,57.4,48.4,32.48,North,0,0.0,0.0,72,0.00,,,-99.99,pyweather 0.1,2013-09-22 14:03:00,
2013-09-22 07:11:00,57.4,48.4,32.48,North,0,0.0,0.0,72,0.00,,,-99.99,pyweather 0.1,2013-09-22 14:11:00,
2013-09-22 07:19:00,57.6,49.0,32.48,North,0,0.0,0.0,73,0.00,,,-99.99,pyweather 0.1,2013-09-22 14:19:00,
2013-09-22 07:27:00,57.6,48.6,32.48,North,0,0.0,0.0,72,0.00,,,-99.99,pyweather 0.1,2013-09-22 14:27:00,
2013-09-22 07:35:00,57.6,48.2,32.48,North,0,0.0,0.0,71,0.00,,,-99.99,pyweather 0.1,2013-09-22 14:35:00,
2013-09-22 07:43:00,57.7,48.0,32.48,North,0,0.0,0.0,70,0.00,,,-99.99,pyweather 0.1,2013-09-22 14:43:00,
2013-09-22 07:51:00,57.9,47.4,32.48,North,0,0.0,0.0,68,0.00,,,-99.99,pyweather 0.1,2013-09-22 14:51:00,
2013-09-22 07:59:00,58.1,47.2,32.48,North,0,0.0,0.0,67,0.00,,,-99.99,pyweather 0.1,2013-09-22 14:59:00,
2013-09-22 08:08:00,58.1,47.2,32.48,North,0,0.0,0.0,67,0.00,,,-99.99,pyweather 0.1,2013-09-22 15:08:00,
2013-09-22 08:16:00,58.1,47.2,32.48,North,0,0.0,0.0,67,0.00,,,-99.99,pyweather 0.1,2013-09-22 15:16:00,
2013-09-22 08:24:00,58.1,47.2,32.48,North,0,0.0,0.0,67,0.00,,,-99.99,pyweather 0.1,2013-09-22 15:24:00,
2013-09-22 08:32:00,57.9,47.4,32.48,North,0,0.0,0.0,68,0.00,,,-99.99,pyweather 0.1,2013-09-22 15:32:00,
2013-09-22 08:40:00,57.9,47.8,32.48,North,0,0.0,0.0,69,0.00,,,-99.99,pyweather 0.1,2013-09-22 15:40:00,
2013-09-22 08:48:00,58.1,48.4,32.48,North,0,0.0,0.0,70,0.00,,,-99.99,pyweather 0.1,2013-09-22 15:48:00,
2013-09-22 08:56:00,58.1,48.4,32.48,North,0,0.0,0.0,70,0.00,,,-99.99,pyweather 0.1,2013-09-22 15:56:00,
2013-09-22 09:04:00,58.1,47.6,32.48,North,0,0.0,0.0,68,0.00,,,-99.99,pyweather 0.1,2013-09-22 16:04:00,
2013-09-22 09:12:00,58.1,46.8,32.48,North,0,0.0,0.0,66,0.00,,,-99.99,pyweather 0.1,2013-09-22 16:12:00,
2013-09-22 09:20:00,58.5,47.2,32.45,North,0,0.0,0.0,66,0.00,,,-99.99,pyweather 0.1,2013-09-22 16:20:00,
2013-09-22 09:28:00,58.8,47.1,32.45,North,0,0.0,0.0,65,0.00,,,-99.99,pyweather 0.1,2013-09-22 16:28:00,
2013-09-22 09:36:00,59.2,46.6,32.45,North,0,0.0,0.0,63,0.00,,,-99.99,pyweather 0.1,2013-09-22 16:36:00,
2013-09-22 09:44:00,59.4,44.6,32.45,North,0,0.0,0.0,58,0.00,,,-99.99,pyweather 0.1,2013-09-22 16:44:00,
2013-09-22 09:52:00,59.5,44.8,32.45,North,0,0.0,0.0,58,0.00,,,-99.99,pyweather 0.1,2013-09-22 16:52:00,
2013-09-22 10:00:00,59.5,44.3,32.45,North,0,0.0,0.0,57,0.00,,,-99.99,pyweather 0.1,2013-09-22 17:00:00,
2013-09-22 10:08:00,59.7,42.6,32.45,North,0,0.0,0.0,53,0.00,,,-99.99,pyweather 0.1,2013-09-22 17:08:00,
2013-09-22 10:16:00,59.7,40.5,32.45,North,0,0.0,0.0,49,0.00,,,-99.99,pyweather 0.1,2013-09-22 17:16:00,
2013-09-22 10:24:00,59.9,39.6,32.45,North,0,0.0,0.0,47,0.00,,,-99.99,pyweather 0.1,2013-09-22 17:24:00,
2013-09-22 10:40:00,60.3,40.5,32.42,North,0,0.0,0.0,48,0.00,,,-99.99,pyweather 0.1,2013-09-22 17:40:00,
2013-09-22 10:48:00,60.4,39.6,32.42,North,0,0.0,0.0,46,0.00,,,-99.99,pyweather 0.1,2013-09-22 17:48:00,
2013-09-22 10:56:00,60.6,39.8,32.42,North,0,0.0,0.0,46,0.00,,,-99.99,pyweather 0.1,2013-09-22 17:56:00,
2013-09-22 11:04:00,61.0,40.1,32.42,North,0,0.0,0.0,46,0.00,,,-99.99,pyweather 0.1,2013-09-22 18:04:00,
2013-09-22 11:12:00,61.0,38.3,32.42,North,0,0.0,0.0,43,0.00,,,-99.99,pyweather 0.1,2013-09-22 18:12:00,
2013-09-22 11:20:00,61.2,39.1,32.42,North,0,0.0,0.0,44,0.00,,,-99.99,pyweather 0.1,2013-09-22 18:20:00,
2013-09-22 11:28:00,61.2,39.7,32.42,North,0,0.0,0.0,45,0.00,,,-99.99,pyweather 0.1,2013-09-22 18:28:00,
2013-09-22 11:36:00,61.0,40.1,32.39,North,0,0.0,0.0,46,0.00,,,-99.99,pyweather 0.1,2013-09-22 18:36:00,
2013-09-22 11:44:00,60.8,40.5,32.39,North,0,0.0,0.0,47,0.00,,,-99.99,pyweather 0.1,2013-09-22 18:44:00,
2013-09-22 11:52:00,60.8,39.9,32.39,North,0,0.0,0.0,46,0.00,,,-99.99,pyweather 0.1,2013-09-22 18:52:00,
2013-09-22 12:00:00,60.6,39.8,32.39,North,0,0.0,0.0,46,0.00,,,-99.99,pyweather 0.1,2013-09-22 19:00:00,
2013-09-22 12:08:00,60.6,40.3,32.39,North,0,0.0,0.0,47,0.00,,,-99.99,pyweather 0.1,2013-09-22 19:08:00,
2013-09-22 12:16:00,60.3,41.0,32.39,North,0,0.0,0.0,49,0.00,,,-99.99,pyweather 0.1,2013-09-22 19:16:00,
2013-09-22 12:24:00,59.5,42.9,32.39,North,0,0.0,0.0,54,0.00,,,-99.99,pyweather 0.1,2013-09-22 19:24:00,
2013-09-22 12:32:00,58.8,45.8,32.39,North,0,0.0,0.0,62,0.04,,,-99.99,pyweather 0.1,2013-09-22 19:32:00,
2013-09-22 12:40:00,58.3,46.6,32.42,North,0,0.0,0.0,65,0.04,,,-99.99,pyweather 0.1,2013-09-22 19:40:00,
2013-09-22 12:48:00,57.9,47.4,32.39,North,0,0.0,0.0,68,0.04,,,-99.99,pyweather 0.1,2013-09-22 19:48:00,
2013-09-22 12:56:00,57.4,48.1,32.39,North,0,0.0,0.0,71,0.04,,,-99.99,pyweather 0.1,2013-09-22 19:56:00,
2013-09-22 13:04:00,57.2,48.6,32.39,North,0,0.0,0.0,73,0.08,,,-99.99,pyweather 0.1,2013-09-22 20:04:00,
2013-09-22 13:12:00,57.0,48.8,32.39,North,0,0.0,0.0,74,0.08,,,-99.99,pyweather 0.1,2013-09-22 20:12:00,
2013-09-22 13:20:00,56.8,49.7,32.39,North,0,0.0,0.0,77,0.08,,,-99.99,pyweather 0.1,2013-09-22 20:20:00,
2013-09-22 13:28:00,56.7,49.5,32.39,North,0,0.0,0.0,77,0.08,,,-99.99,pyweather 0.1,2013-09-22 20:28:00,
2013-09-22 13:36:00,56.3,50.5,32.39,North,0,0.0,0.0,81,0.08,,,-99.99,pyweather 0.1,2013-09-22 20:36:00,
2013-09-22 13:44:00,56.3,50.9,32.39,North,0,0.0,0.0,82,0.12,,,-99.99,pyweather 0.1,2013-09-22 20:44:00,
2013-09-22 13:52:00,56.3,50.9,32.39,North,0,0.0,0.0,82,0.12,,,-99.99,pyweather 0.1,2013-09-22 20:52:00,
2013-09-22 14:00:00,56.3,51.5,32.39,North,0,0.0,0.0,84,0.08,,,-99.99,pyweather 0.1,2013-09-22 21:00:00,
2013-09-22 14:08:00,56.5,51.7,32.42,North,0,0.0,0.0,84,0.08,,,-99.99,pyweather 0.1,2013-09-22 21:08:00,
2013-09-22 14:16:00,56.8,52.1,32.42,North,0,0.0,0.0,84,0.08,,,-99.99,pyweather 0.1,2013-09-22 21:16:00,
2013-09-22 14:24:00,57.2,52.4,32.42,North,0,0.0,0.0,84,0.04,,,-99.99,pyweather 0.1,2013-09-22 21:24:00,
2013-09-22 14:32:00,57.4,52.6,32.42,North,0,0.0,0.0,84,0.04,,,-99.99,pyweather 0.1,2013-09-22 21:32:00,
2013-09-22 14:40:00,57.7,53.0,32.39,North,0,0.0,0.0,84,0.00,,,-99.99,pyweather 0.1,2013-09-22 21:40:00,
2013-09-22 14:48:00,57.9,53.1,32.39,North,0,0.0,0.0,84,0.00,,,-99.99,pyweather 0.1,2013-09-22 21:48:00,
2013-09-22 14:56:00,58.1,53.0,32.39,North,0,0.0,0.0,83,0.00,,,-99.99,pyweather 0.1,2013-09-22 21:56:00,
2013-09-22 15:04:00,58.3,53.2,32.39,North,0,0.0,0.0,83,0.00,,,-99.99,pyweather 0.1,2013-09-22 22:04:00,
2013-09-22 15:12:00,58.5,53.0,32.39,North,0,0.0,0.0,82,0.00,,,-99.99,pyweather 0.1,2013-09-22 22:12:00,
2013-09-22 15:20:00,58.6,52.8,32.39,North,0,0.0,0.0,81,0.00,,,-99.99,pyweather 0.1,2013-09-22 22:20:00,
2013-09-22 15:28:00,59.0,52.5,32.39,North,0,0.0,0.0,79,0.00,,,-99.99,pyweather 0.1,2013-09-22 22:28:00,
2013-09-22 15:36:00,59.4,53.2,32.39,North,0,0.0,0.0,80,0.00,,,-99.99,pyweather 0.1,2013-09-22 22:36:00,
2013-09-22 15:44:00,59.5,53.0,32.39,North,0,0.0,0.0,79,0.00,,,-99.99,pyweather 0.1,2013-09-22 22:44:00,
2013-09-22 15:52:00,59.7,52.9,32.39,North,0,0.0,0.0,78,0.00,,,-99.99,pyweather 0.1,2013-09-22 22:52:00,
2013-09-22 16:00:00,60.4,53.9,32.39,North,0,0.0,0.0,79,0.00,,,-99.99,pyweather 0.1,2013-09-22 23:00:00,
2013-09-22 16:09:00,61.3,54.8,32.42,North,0,0.0,0.0,79,0.00,,,-99.99,pyweather 0.1,2013-09-22 23:09:00,
2013-09-22 16:17:00,61.3,52.6,32.42,North,0,0.0,0.0,73,0.00,,,-99.99,pyweather 0.1,2013-09-22 23:17:00,
2013-09-22 16:25:00,61.0,52.3,32.42,North,0,0.0,0.0,73,0.00,,,-99.99,pyweather 0.1,2013-09-22 23:25:00,
2013-09-22 16:33:00,60.8,52.1,32.42,North,0,0.0,0.0,73,0.00,,,-99.99,pyweather 0.1,2013-09-22 23:33:00,
2013-09-22 16:41:00,60.8,52.1,32.42,North,0,0.0,0.0,73,0.00,,,-99.99,pyweather 0.1,2013-09-22 23:41:00,
2013-09-22 16:49:00,60.6,51.9,32.42,North,0,0.0,0.0,73,0.00,,,-99.99,pyweather 0.1,2013-09-22 23:49:00,
2013-09-22 16:57:00,60.4,51.8,32.42,North,0,0.0,0.0,73,0.00,,,-99.99,pyweather 0.1,2013-09-22 23:57:00,
2013-09-22 17:05:00,60.6,51.9,32.42,North,0,0.0,0.0,73,0.00,,,-99.99,pyweather 0.1,2013-09-23 00:05:00,
2013-09-22 17:13:00,60.8,52.1,32.42,North,0,0.0,0.0,73,0.00,,,-99.99,pyweather 0.1,2013-09-23 00:13:00,
2013-09-22 17:21:00,61.2,52.1,32.42,North,0,0.0,0.0,72,0.00,,,-99.99,pyweather 0.1,2013-09-23 00:21:00,
2013-09-22 17:29:00,61.2,51.7,32.42,North,0,0.0,0.0,71,0.00,,,-99.99,pyweather 0.1,2013-09-23 00:29:00,
2013-09-22 17:37:00,61.2,51.7,32.42,North,0,0.0,0.0,71,0.00,,,-99.99,pyweather 0.1,2013-09-23 00:37:00,
2013-09-22 17:45:00,61.0,51.5,32.42,North,0,0.0,0.0,71,0.00,,,-99.99,pyweather 0.1,2013-09-23 00:45:00,
2013-09-22 17:53:00,61.0,51.5,32.45,North,0,0.0,0.0,71,0.00,,,-99.99,pyweather 0.1,2013-09-23 00:53:00,
2013-09-22 18:01:00,61.0,50.8,32.45,North,0,0.0,0.0,69,0.00,,,-99.99,pyweather 0.1,2013-09-23 01:01:00,
2013-09-22 18:09:00,60.8,50.2,32.45,North,0,0.0,0.0,68,0.00,,,-99.99,pyweather 0.1,2013-09-23 01:09:00,
2013-09-22 18:17:00,60.8,50.2,32.45,North,0,0.0,0.0,68,0.00,,,-99.99,pyweather 0.1,2013-09-23 01:17:00,
2013-09-22 18:25:00,60.8,50.6,32.45,North,0,0.0,0.0,69,0.00,,,-99.99,pyweather 0.1,2013-09-23 01:25:00,
2013-09-22 18:33:00,60.6,50.0,32.45,North,0,0.0,0.0,68,0.00,,,-99.99,pyweather 0.1,2013-09-23 01:33:00,
2013-09-22 18:41:00,60.4,50.2,32.45,North,0,0.0,0.0,69,0.00,,,-99.99,pyweather 0.1,2013-09-23 01:41:00,
2013-09-22 18:49:00,60.3,50.5,32.45,North,0,0.0,0.0,70,0.00,,,-99.99,pyweather 0.1,2013-09-23 01:49:00,
2013-09-22 18:57:00,60.1,50.3,32.45,North,0,0.0,0.0,70,0.00,,,-99.99,pyweather 0.1,2013-09-23 01:57:00,
2013-09-22 19:06:00,59.9,50.1,32.45,North,0,0.0,0.0,70,0.00,,,-99.99,pyweather 0.1,2013-09-23 02:06:00,
2013-09-22 19:14:00,59.5,49.8,32.45,North,0,0.0,0.0,70,0.00,,,-99.99,pyweather 0.1,2013-09-23 02:14:00,
2013-09-22 19:22:00,59.2,49.0,32.45,North,0,0.0,0.0,69,0.00,,,-99.99,pyweather 0.1,2013-09-23 02:22:00,
2013-09-22 19:30:00,59.0,48.9,32.45,North,0,0.0,0.0,69,0.00,,,-99.99,pyweather 0.1,2013-09-23 02:30:00,
2013-09-22 19:38:00,58.8,48.7,32.45,North,0,0.0,0.0,69,0.00,,,-99.99,pyweather 0.1,2013-09-23 02:38:00,
2013-09-22 19:46:00,58.8,48.7,32.45,North,0,0.0,0.0,69,0.00,,,-99.99,pyweather 0.1,2013-09-23 02:46:00,
2013-09-22 19:54:00,58.6,48.5,32.48,North,0,0.0,0.0,69,0.00,,,-99.99,pyweather 0.1,2013-09-23 02:54:00,
2013-09-22 20:02:00,58.6,48.5,32.48,North,0,0.0,0.0,69,0.00,,,-99.99,pyweather 0.1,2013-09-23 03:02:00,
2013-09-22 20:18:00,58.3,48.5,32.48,North,0,0.0,0.0,70,0.00,,,-99.99,pyweather 0.1,2013-09-23 03:18:00,
2013-09-22 20:26:00,58.1,48.4,32.48,North,0,0.0,0.0,70,0.00,,,-99.99,pyweather 0.1,2013-09-23 03:26:00,
2013-09-22 20:34:00,58.1,48.4,32.48,North,0,0.0,0.0,70,0.00,,,-99.99,pyweather 0.1,2013-09-23 03:34:00,
2013-09-22 20:42:00,57.9,48.2,32.48,North,0,0.0,0.0,70,0.00,,,-99.99,pyweather 0.1,2013-09-23 03:42:00,
2013-09-22 20:50:00,57.9,48.2,32.48,North,0,0.0,0.0,70,0.00,,,-99.99,pyweather 0.1,2013-09-23 03:50:00,
2013-09-22 20:58:00,57.9,48.2,32.48,North,0,0.0,0.0,70,0.00,,,-99.99,pyweather 0.1,2013-09-23 03:58:00,
2013-09-22 21:06:00,57.9,48.2,32.51,North,0,0.0,0.0,70,0.00,,,-99.99,pyweather 0.1,2013-09-23 04:06:00,
2013-09-22 21:14:00,57.7,48.0,32.51,North,0,0.0,0.0,70,0.00,,,-99.99,pyweather 0.1,2013-09-23 04:14:00,
2013-09-22 21:22:00,57.7,48.0,32.51,North,0,0.0,0.0,70,0.00,,,-99.99,pyweather 0.1,2013-09-23 04:22:00,
2013-09-22 21:30:00,57.7,48.0,32.51,North,0,0.0,0.0,70,0.00,,,-99.99,pyweather 0.1,2013-09-23 04:30:00,
2013-09-22 21:38:00,57.6,48.2,32.51,North,0,0.0,0.0,71,0.00,,,-99.99,pyweather 0.1,2013-09-23 04:38:00,
2013-09-22 21:46:00,57.4,48.1,32.51,North,0,0.0,0.0,71,0.00,,,-99.99,pyweather 0.1,2013-09-23 04:46:00,
2013-09-22 21:54:00,57.2,48.3,32.51,North,0,0.0,0.0,72,0.00,,,-99.99,pyweather 0.1,2013-09-23 04:54:00,
2013-09-22 22:03:00,57.2,48.6,32.51,North,0,0.0,0.0,73,0.00,,,-99.99,pyweather 0.1,2013-09-23 05:03:00,
2013-09-22 22:11:00,57.2,48.6,32.51,North,0,0.0,0.0,73,0.00,,,-99.99,pyweather 0.1,2013-09-23 05:11:00,
2013-09-22 22:19:00,57.2,49.0,32.51,North,0,0.0,0.0,74,0.00,,,-99.99,pyweather 0.1,2013-09-23 05:19:00,
2013-09-22 22:27:00,57.2,49.4,32.51,North,0,0.0,0.0,75,0.00,,,-99.99,pyweather 0.1,2013-09-23 05:27:00,
2013-09-22 22:35:00,57.2,49.4,32.51,North,0,0.0,0.0,75,0.00,,,-99.99,pyweather 0.1,2013-09-23 05:35:00,
2013-09-22 22:43:00,57.4,49.5,32.51,North,0,0.0,0.0,75,0.00,,,-99.99,pyweather 0.1,2013-09-23 05:43:00,
2013-09-22 22:51:00,57.2,49.4,32.51,North,0,0.0,0.0,75,0.00,,,-99.99,pyweather 0.1,2013-09-23 05:51:00,
2013-09-22 22:59:00,57.4,49.5,32.51,North,0,0.0,0.0,75,0.00,,,-99.99,pyweather 0.1,2013-09-23 05:59:00,
2013-09-22 23:07:00,57.4,49.5,32.54,North,0,0.0,0.0,75,0.00,,,-99.99,pyweather 0.1,2013-09-23 06:07:00,
2013-09-22 23:15:00,57.6,49.7,32.54,North,0,0.0,0.0,75,0.00,,,-99.99,pyweather 0.1,2013-09-23 06:15:00,
2013-09-22 23:23:00,57.7,49.9,32.54,North,0,0.0,0.0,75,0.00,,,-99.99,pyweather 0.1,2013-09-23 06:23:00,
2013-09-22 23:31:00,57.6,50.1,32.54,North,0,0.0,0.0,76,0.00,,,-99.99,pyweather 0.1,2013-09-23 06:31:00,
2013-09-22 23:39:00,57.4,50.6,32.54,North,0,0.0,0.0,78,0.00,,,-99.99,pyweather 0.1,2013-09-23 06:39:00,
2013-09-22 23:47:00,57.2,50.8,32.54,North,0,0.0,0.0,79,0.00,,,-99.99,pyweather 0.1,2013-09-23 06:47:00,
2013-09-22 23:55:00,57.0,50.9,32.54,North,0,0.0,0.0,80,0.04,,,-99.99,pyweather 0.1,2013-09-23 06:55:00,